[[{"header":{"parameterUnit":"m.s-1","parameterCategory":1,"la1":30.2991,"la2":30.254,"lo1":-89.0895,"lo2":-89.0444,"dy":0.0017,"dx":0.0017,"nx":28,"ny":28,"refTime":"2023-09-25T03:00:00:Z","depth":0,"parameterNumber":2,"parameterNumberName":"U-component_of_WINDS"},"data":[0,0,0,0,0,0,0,0,0,0,0,0,0,0,0,0,0,0,0,0,0,0,0,0,0,0,0,0,0,0,0,0,0,0,0,0,0,0,0,0,0,0,0,0,0,0,0,0,0,0,0,0,0,0,0,0,0,0,1.7625,1.7625,0,1.7686,1.7687,1.7687,1.7678,1.7677,1.7675,1.7674,1.7736,1.7739,1.7741,0,0,0,0,0,0,0,0,0,0,0,0,0,1.7497,1.75,1.7625,1.7626,1.7626,1.7686,1.7687,1.7688,1.7678,1.7676,1.7675,1.7674,1.7735,1.7739,1.7742,0,0,0,0,0,0,0,0,0,0,0,0,0,1.7555,1.7501,1.7625,1.7629,1.763,1.7686,1.7687,1.7688,1.7678,1.7676,1.7675,1.7673,1.7734,1.7738,1.7742,1.7798,0,0,1.7754,1.7756,0,0,0,0,0,0,0,0,1.7552,1.756,1.7627,1.7628,1.763,1.7673,1.7664,1.7725,1.7678,1.766,1.7674,1.7673,1.7716,1.7722,1.7737,1.7801,1.7803,1.7755,1.7757,1.7759,1.776,0,0,0,0,0,0,0,1.7548,1.7557,1.7649,1.7628,1.763,1.7627,1.7633,1.7676,1.7696,1.7661,1.7661,1.7668,1.7717,1.7733,1.7738,1.7804,1.7754,1.7758,1.776,1.7762,1.7915,1.7916,0,0,0,0,0,0,1.7543,1.7554,1.7647,1.7651,1.7586,1.763,1.7637,1.766,1.7696,1.7699,1.7669,1.7667,1.7727,1.7733,1.774,1.7805,1.7759,1.7762,1.7765,1.7913,1.7915,1.7917,0,0,0,0,0,0,1.754,1.7551,1.7645,1.7602,1.7614,1.7634,1.766,1.7662,1.7678,1.7702,1.7705,1.7682,1.7726,1.7735,1.7783,1.7808,1.7764,1.7768,1.7911,1.7913,1.7916,1.7938,0,0,0,0,0,0,1.7537,1.755,1.7572,1.7603,1.7616,1.7687,1.7661,1.7665,1.7685,1.7683,1.7715,1.7718,1.7725,1.7777,1.7787,1.7812,1.7771,1.7909,1.7912,1.7915,1.7935,1.7941,1.7946,0,0,0,0,0,1.7532,1.7577,1.7574,1.7585,1.7644,1.7689,1.7696,1.7703,1.7687,1.7709,1.7724,1.7717,1.7804,1.7782,1.7793,1.782,1.7907,1.7911,1.7915,1.7933,1.794,1.7946,0,0,0,0,0,0,1.7549,1.7581,1.7578,1.7633,1.7658,1.7687,1.7714,1.7711,1.7741,1.7738,1.7746,1.7753,1.7801,1.7816,1.7791,1.7874,1.7853,1.7859,1.7863,1.787,1.7875,1.787,1.7774,0,0,0,0,0,1.7559,1.7593,1.7619,1.7666,1.7678,1.7694,1.7714,1.7717,1.7743,1.7754,1.7772,1.7797,1.7829,1.7851,1.7882,1.7938,1.7943,1.7961,1.7967,1.7971,1.7976,1.8004,1.8011,1.7929,1.7929,1.7929,0,0,1.758,1.7602,1.7623,1.7669,1.7689,1.7723,1.7703,1.7741,1.7765,1.7759,1.7805,1.782,1.7848,1.79,1.7923,1.7913,1.8,1.7976,1.7979,1.7982,1.8008,1.8016,1.8023,1.7932,1.7931,1.7931,0,0,1.7636,1.7657,1.7696,1.7716,1.7746,1.7756,1.7766,1.7795,1.7804,1.7851,1.7846,1.7876,1.7932,1.7952,1.7969,1.8031,1.8025,1.8041,1.8069,1.8096,1.8102,1.8108,1.8128,1.8135,1.8046,1.8046,1.8046,0,1.7658,1.771,1.7717,1.7755,1.7774,1.777,1.781,1.7829,1.7868,1.7881,1.7869,1.7938,1.7958,1.8012,1.8027,1.8042,1.8052,1.8037,1.8101,1.8107,1.8112,1.8131,1.8138,1.8047,1.8047,1.8047,1.8047,0,1.7735,1.777,1.7799,1.7836,1.7859,1.7897,1.7909,1.7932,1.7933,1.7944,1.799,1.8013,1.8048,1.8062,1.8064,1.8116,1.8109,1.8099,1.8077,1.8121,1.8139,1.8146,1.805,1.8049,1.8049,1.8048,0,0,1.7802,1.7842,1.7852,1.7868,1.79,1.7927,1.7965,1.7999,1.8016,1.8043,1.8073,1.8121,1.8111,1.8131,1.8135,1.8159,1.8203,1.8146,1.8147,1.8154,1.826,1.8266,1.8274,1.8201,1.8202,1.8203,1.8257,0,1.7859,1.7925,1.7933,1.7991,1.8023,1.8019,1.8052,1.8074,1.8085,1.8113,1.8126,1.8158,1.8144,1.8156,1.818,1.8193,1.8224,1.819,1.8227,1.8228,1.8218,1.8284,1.829,1.834,1.8264,1.8265,1.8266,0,1.7934,1.7962,1.8024,1.805,1.8063,1.8092,1.8123,1.815,1.8175,1.8181,1.8203,1.8203,1.824,1.8219,1.8269,1.8245,1.8261,1.827,1.8272,1.8274,1.8249,1.8286,1.8356,1.8363,1.8278,1.8277,1.8276,0,1.7974,1.8028,1.8071,1.8085,1.8117,1.8137,1.8151,1.8174,1.8193,1.822,1.8232,1.8263,1.828,1.8303,1.8311,1.8295,1.8361,1.834,1.8365,1.8365,1.8378,1.8377,1.845,1.8392,1.8392,1.8391,1.8391,0,1.8036,1.8073,1.8089,1.8115,1.8156,1.8164,1.8204,1.8217,1.8238,1.8266,1.8265,1.8291,1.8302,1.8329,1.8336,1.8375,1.8383,1.8388,1.8389,1.8387,1.8386,1.8396,1.8392,1.8393,1.8393,1.8393,1.8392,0,1.8087,1.8099,1.8146,1.8172,1.8179,1.8208,1.823,1.8255,1.8265,1.83,1.8309,1.8325,1.8357,1.8368,1.8408,1.8412,1.8457,1.8456,1.8448,1.8448,1.8472,1.8469,1.8553,1.8563,1.85,1.8501,1.8501,0,1.8125,1.8153,1.8182,1.82,1.8215,1.8245,1.8265,1.8273,1.8293,1.8323,1.8344,1.8375,1.8401,1.8452,1.8467,1.8497,1.8495,1.8522,1.8499,1.8496,1.8493,1.849,1.8492,1.8526,1.8527,1.8527,1.8528,0,1.8189,1.8193,1.8221,1.8251,1.8274,1.8298,1.8321,1.8337,1.8348,1.8371,1.8403,1.8423,1.8462,1.8493,1.8523,1.8537,1.8533,1.8535,1.8542,1.8539,1.8533,1.8534,1.8458,1.8533,1.8532,1.8532,1.8532,1.8531,1.8233,1.8257,1.8281,1.8311,1.833,1.8351,1.8375,1.8388,1.8415,1.8448,1.8451,1.8486,1.8508,1.8548,1.8563,1.8589,1.8582,1.8592,1.8595,1.8597,1.8597,1.853,1.8595,1.8595,1.8595,1.8595,1.8595,0,1.8295,1.831,1.8338,1.837,1.8394,1.839,1.8415,1.8434,1.8465,1.8486,1.8511,1.8548,1.8577,1.8594,1.8624,1.8641,1.8641,1.8649,1.8646,1.8649,1.8604,1.8594,1.8649,1.8649,1.8649,1.8649,1.8649,1.8649,1.833,1.837,1.8377,1.8425,1.844,1.8474,1.8488,1.8507,1.8524,1.8564,1.8589,1.86,1.8619,1.8649,1.8676,1.868,1.869,1.8698,1.8701,1.8658,1.8653,1.8647,1.8638,1.8701,1.8701,1.8744,1.8745,1.8745]},{"header":{"parameterUnit":"m.s-1","parameterCategory":1,"la1":30.2991,"la2":30.254,"lo1":-89.0895,"lo2":-89.0444,"dy":0.0017,"dx":0.0017,"nx":28,"ny":28,"refTime":"2023-09-25T03:00:00:Z","depth":0,"parameterNumber":3,"parameterNumberName":"V-component_of_WINDS"},"data":[0,0,0,0,0,0,0,0,0,0,0,0,0,0,0,0,0,0,0,0,0,0,0,0,0,0,0,0,0,0,0,0,0,0,0,0,0,0,0,0,0,0,0,0,0,0,0,0,0,0,0,0,0,0,0,0,0,0,2.4967,2.4968,0,2.5055,2.5056,2.5057,2.505,2.5048,2.5047,2.5046,2.5131,2.5134,2.5138,0,0,0,0,0,0,0,0,0,0,0,0,0,2.4787,2.4791,2.4967,2.4968,2.4969,2.5055,2.5056,2.5057,2.505,2.5048,2.5047,2.5045,2.513,2.5134,2.5138,0,0,0,0,0,0,0,0,0,0,0,0,0,2.4869,2.4792,2.4967,2.4976,2.4978,2.5054,2.5056,2.5057,2.505,2.5048,2.5046,2.5044,2.5128,2.5133,2.5138,2.521,0,0,2.5154,2.5157,0,0,0,0,0,0,0,0,2.4864,2.4876,2.4974,2.4976,2.4978,2.5039,2.5024,2.5108,2.5051,2.5022,2.5046,2.5043,2.5102,2.5109,2.513,2.5214,2.5218,2.5155,2.5158,2.516,2.5162,0,0,0,0,0,0,0,2.4859,2.4872,2.5002,2.4975,2.4977,2.4974,2.4983,2.504,2.5072,2.5025,2.5025,2.5035,2.5102,2.5124,2.5131,2.5219,2.5155,2.5159,2.5163,2.5165,2.5364,2.5367,0,0,0,0,0,0,2.4852,2.4867,2.4999,2.5004,2.4915,2.4979,2.4989,2.5021,2.5071,2.5077,2.5037,2.5035,2.5117,2.5125,2.5134,2.522,2.516,2.5165,2.5168,2.5362,2.5365,2.5367,0,0,0,0,0,0,2.4848,2.4864,2.4995,2.4936,2.4952,2.4984,2.502,2.5024,2.5046,2.508,2.5086,2.5054,2.5115,2.5127,2.5191,2.5223,2.5168,2.5172,2.536,2.5363,2.5366,2.5394,0,0,0,0,0,0,2.4843,2.4862,2.4891,2.4936,2.4955,2.5053,2.5022,2.5027,2.5056,2.5054,2.5098,2.5103,2.5115,2.5183,2.5196,2.5229,2.5176,2.5357,2.5361,2.5365,2.539,2.5398,2.5404,0,0,0,0,0,2.4836,2.4895,2.4893,2.4909,2.4993,2.5055,2.5065,2.5079,2.5059,2.5087,2.5109,2.5102,2.5218,2.519,2.5205,2.524,2.5355,2.536,2.5365,2.5387,2.5396,2.5404,0,0,0,0,0,0,2.4852,2.4901,2.4899,2.4975,2.5011,2.5053,2.509,2.5088,2.5129,2.5125,2.5138,2.5148,2.5212,2.5232,2.5201,2.5311,2.5283,2.5291,2.5295,2.5304,2.5311,2.5304,2.5181,0,0,0,0,0,2.4864,2.4912,2.4952,2.5014,2.5032,2.5058,2.5085,2.5093,2.5129,2.5144,2.517,2.5205,2.5249,2.5278,2.532,2.5393,2.5401,2.5424,2.5431,2.5436,2.5443,2.5481,2.5491,2.5383,2.5383,2.5383,0,0,2.489,2.4922,2.4952,2.5018,2.5047,2.5094,2.5071,2.5122,2.5156,2.5151,2.5214,2.5234,2.5273,2.5342,2.5373,2.536,2.5474,2.5442,2.5447,2.545,2.5487,2.5497,2.5506,2.5387,2.5386,2.5386,0,0,2.496,2.4991,2.5046,2.5075,2.5119,2.5135,2.5148,2.5191,2.5205,2.5268,2.5264,2.5304,2.5381,2.5408,2.5432,2.5512,2.5506,2.5525,2.5561,2.5598,2.5606,2.5614,2.564,2.565,2.5531,2.5532,2.5532,0,2.4986,2.5059,2.5073,2.5125,2.5153,2.5152,2.5206,2.5233,2.5288,2.5307,2.5292,2.5387,2.5413,2.5487,2.5506,2.5526,2.554,2.552,2.5604,2.5612,2.5619,2.5645,2.5655,2.5533,2.5533,2.5533,2.5533,0,2.5088,2.5138,2.5176,2.5231,2.5263,2.5316,2.5336,2.5367,2.5371,2.5388,2.5451,2.5483,2.5531,2.5549,2.5553,2.5623,2.5613,2.5601,2.5574,2.5631,2.5655,2.5665,2.5536,2.5536,2.5535,2.5534,0,0,2.5171,2.5232,2.5246,2.527,2.5318,2.5356,2.5407,2.5456,2.5481,2.5518,2.556,2.5624,2.5613,2.564,2.5647,2.5679,2.5738,2.5663,2.5664,2.5675,2.5815,2.5823,2.5835,2.5735,2.5737,2.5738,2.5811,0,2.5245,2.5339,2.5353,2.5434,2.5479,2.5478,2.5522,2.5555,2.5572,2.5611,2.5629,2.5674,2.5656,2.5672,2.5704,2.5724,2.5766,2.5719,2.5772,2.5774,2.5762,2.5848,2.5857,2.5925,2.5821,2.5823,2.5824,0,2.5345,2.5387,2.5473,2.5513,2.5532,2.5573,2.5617,2.5655,2.5691,2.5701,2.5731,2.5734,2.5784,2.5755,2.5824,2.5792,2.5814,2.5827,2.583,2.5835,2.5802,2.5854,2.5947,2.5956,2.5839,2.5838,2.5837,0,2.5396,2.5473,2.5534,2.5555,2.5603,2.5631,2.5652,2.5687,2.5714,2.5753,2.577,2.5813,2.5837,2.5869,2.5882,2.586,2.5949,2.5922,2.5957,2.5957,2.5976,2.5974,2.6073,2.5992,2.5992,2.5991,2.5991,0,2.5477,2.553,2.5557,2.5595,2.5652,2.5667,2.5723,2.5743,2.5773,2.5813,2.5814,2.585,2.5866,2.5904,2.5914,2.5969,2.598,2.5988,2.5989,2.5987,2.5986,2.6002,2.5997,2.5994,2.5993,2.5993,2.5992,0,2.5544,2.5565,2.5631,2.5672,2.5683,2.5723,2.5757,2.5792,2.5808,2.5858,2.5871,2.5896,2.5941,2.5957,2.6012,2.6019,2.6082,2.608,2.607,2.607,2.6104,2.61,2.6215,2.623,2.614,2.6141,2.6142,0,2.5594,2.5635,2.568,2.5707,2.573,2.5774,2.5802,2.5817,2.5846,2.5889,2.5918,2.5964,2.6001,2.6073,2.6094,2.6136,2.6134,2.6172,2.614,2.6136,2.6133,2.6131,2.6134,2.6177,2.6178,2.6179,2.6179,0,2.5681,2.5689,2.5731,2.5776,2.581,2.5846,2.588,2.5902,2.5921,2.5953,2.6,2.6029,2.6085,2.6129,2.6171,2.6191,2.6188,2.6189,2.6199,2.6197,2.6189,2.6193,2.6085,2.6186,2.6186,2.6185,2.6185,2.6185,2.574,2.5775,2.5812,2.5858,2.5886,2.5918,2.5953,2.5973,2.6013,2.6061,2.6067,2.6117,2.6149,2.6206,2.6227,2.6265,2.6255,2.627,2.6273,2.6277,2.6278,2.6184,2.6273,2.6273,2.6272,2.6272,2.6272,0,2.5826,2.585,2.5892,2.594,2.5976,2.5972,2.6009,2.6038,2.6083,2.6115,2.6151,2.6204,2.6247,2.6271,2.6313,2.6339,2.6338,2.6349,2.6347,2.6351,2.6286,2.6273,2.6349,2.6349,2.6349,2.6349,2.6349,2.6349,2.5875,2.5934,2.5946,2.6017,2.604,2.609,2.6112,2.614,2.6166,2.6225,2.6261,2.6278,2.6306,2.635,2.6388,2.6394,2.6409,2.642,2.6425,2.6364,2.6356,2.6348,2.6336,2.6424,2.6424,2.6487,2.6487,2.6488]}]]